Regional Weather Roundup
Issued by NWS

Home | Current Version | Previous Version | Graphics & Text | Print | Product List | Glossary On
Versions: 1 2 3 4 5 6 7 8 9 10 11 12 13 14 15 16 17 18 19 20 21 22 23 24 25 26 27 28 29 30 31 32 33 34 35 36 37 38 39 40 41 42 43 44 45 46 47 48 49 50
000
ASUS43 KDTX 281001
RWRMI
MICHIGAN HOURLY REGIONAL WEATHER ROUNDUP
NATIONAL WEATHER SERVICE DETROIT/PONTIAC MI
600 AM EDT WED JUN 28 2017

NOTE: "FAIR" INDICATES FEW OR NO CLOUDS BELOW 12,000 FEET WITH NO
SIGNIFICANT WEATHER AND/OR OBSTRUCTION TO VISIBILITY.

MIZ047>049-052>055-059>063-066>070-074>076-081>083-281100-
SOUTHEAST LOWER MICHIGAN

CITY           SKY/WX    TMP DP  RH WIND       PRES   REMARKS
ADRIAN         CLEAR     48  44  86 CALM      30.09F
ALMA           CLEAR     50  48  92 W8        30.04S
ANN ARBOR      FOG       41  41 100 CALM      30.07F VSB 3/4
BAD AXE        CLEAR     49  48  96 CALM      30.05F
CARO           PTCLDY    48  48  99 CALM      30.04F
DETROIT CITY   CLEAR     54  47  77 SW5       30.08S
DETROIT        PTCLDY    51  47  86 S6        30.09F
FLINT          CLEAR     52  46  80 S5        30.06F
GROSSE ILE     CLEAR     56  47  72 W5        30.07F
HILLSDALE      CLEAR     52  43  71 S3        30.07F
HOWELL         CLEAR     53  44  70 SW5       30.07S

CITY           SKY/WX    TMP DP  RH WIND       PRES   REMARKS
JACKSON        CLEAR     51  44  77 SW3       30.07F
LAMBERTVILLE   PTCLDY    48  46  95 CALM      30.09F
LANSING        CLEAR     54  44  69 S6        30.06S
LAPEER         FAIR      47  47  99 CALM      30.06F
MASON          CLEAR     52  46  79 S5        30.07S
MONROE         CLEAR     49  48  95 CALM      30.08F
MT. CLEMENS    CLEAR     52  47  84 SW3       30.06S
PONTIAC        PTCLDY    51  48  89 CALM      30.06F
PORT HOPE        N/A     55  51  86 SW3       30.02S
PORT HURON     FOG       46  45  93 CALM      30.07F VSB 1
TRI CITIES     CLEAR     55  50  83 S7        30.04F
MIDLAND        FAIR      48  47  97 CALM      30.03S
TROY           CLEAR     55  45  69 CALM      30.09F
SAGINAW HB     CLEAR     52  46  82 S5        30.04S
$$
MIZ043>046-050>051-056>058-064>065-071>073-077>080-281100-
SOUTHWEST LOWER MICHIGAN

CITY           SKY/WX    TMP DP  RH WIND       PRES   REMARKS
BATTLE CREEK   CLEAR     55  46  71 S8        30.07R
BENTON HARBOR  CLEAR     57  46  66 SE6       30.04R
BIG RAPIDS     CLEAR     49  47  93 CALM      30.02R
COLDWATER      CLEAR     54  46  75 CALM      30.08R
FREMONT        FAIR      52  46  79 CALM      30.01R
HOLLAND        CLEAR     55  46  71 S7        30.04R
GRAND RAPIDS   PTCLDY    57  47  69 S8        30.04R
IONIA          FAIR      57  45  63 S7        30.04R
KALAMAZOO      CLEAR     55  46  71 S6        30.07R
LUDINGTON      MOCLDY    58  53  83 S6        29.97S
MARSHALL       CLEAR     54  45  73 CALM      30.07R
MOUNT PLEASANT PTCLDY    51  47  86 CALM      30.02S
MUSKEGON       CLEAR     62  55  77 S9        30.02R
SOUTH HAVEN    CLEAR     56  48  74 S5        30.04S
$$
MIZ016>042-281100-
NORTHERN LOWER MICHIGAN

CITY           SKY/WX    TMP DP  RH WIND       PRES   REMARKS
ALPENA         CLEAR     50  48  93 CALM      29.99F
BELLAIRE       CLEAR     51  49  93 CALM      29.97S
CADILLAC       CLEAR     48  45  89 CALM      30.00R
CHARLEVOIX     CLEAR     58  51  77 S3        29.98F
FRANKFORT      CLEAR     57  49  75 E3        29.96R
GAYLORD        CLEAR     52  45  77 SW3       29.99F
GRAYLING       CLEAR     45  44  95 SW6       30.00F
HARBOR SPRINGS CLEAR     53  51  92 CALM      29.96F
HOUGHTON LAKE  CLEAR     50  48  93 CALM      30.01F
MANISTEE       CLEAR     52  50  93 CALM      29.97R
OSCODA         CLEAR     51  47  86 SW3       30.01F
PELLSTON       CLEAR     50  46  86 E3        29.96S
ROGERS CITY    CLEAR     54  47  77 SW9       29.97F
TRAVERSE CITY  CLEAR     58  49  72 VRB3      29.95F
$$
MIZ007>008-015-281100-
EASTERN UPPER MICHIGAN

CITY           SKY/WX    TMP DP  RH WIND       PRES   REMARKS
KINROSS        CLEAR     53  51  93 S3        29.93F
MACKINAC ISLAN CLEAR     58  52  81 S9        29.93F
NEWBERRY       CLEAR     52  51  97 S6        29.91F
S. S. MARIE    CLEAR     52  49  89 E3        29.92F
MUNISING         N/A     56  51  84 S6        29.87S
$$
MIZ004>006-011>014-085-281100-
CENTRAL UPPER MICHIGAN

CITY           SKY/WX    TMP DP  RH WIND       PRES   REMARKS
MANISTIQUE     CLEAR     54  51  89 S3        29.90F
ESCANABA       CLEAR     51  50  96 CALM      29.90R
MENOMINEE      CLEAR     58  54  86 SW7       29.93R
SAWYER-GWINN   CLEAR     53  49  86 S7        29.89R
$$
MIZ001>003-009>011-084-281100-
WESTERN UPPER MICHIGAN

CITY           SKY/WX    TMP DP  RH WIND       PRES   REMARKS
IRON MOUNTAIN  CLEAR     51  46  83 S5        29.90R
HOUGHTON       CLEAR     52  47  83 CALM      29.83R
COPPER HARBOR    N/A     57  48  72 SW9       29.80S
IRONWOOD       CLOUDY    58  46  64 S8        29.81R
$$

ABBREVIATIONS USED IN REMARKS
   TC - TEMPERATURE IN CELSIUS
  WCI - WIND CHILL INDEX
   HX - HEAT INDEX
  VSB - VISIBILITY





USA.gov is the U.S. government's official web portal to all federal, state and local government web resources and services.